Погода Соловецкие Острова

Погода Соловецкие Острова : погода сейчас, прогноз погоды и архив. Всё, что Вы хотите узнать о погоде Соловецкие Острова!

Хотите узнать прогноз погоды Соловецкие Острова? Тогда Вам сюда: Погода Соловецкие Острова

Поиск расширенной информации на нашем сайте:

Другие новости

Новости СМИ2

Главная страница сайта

Новости сайта

03.07.2017

Напоминаем, что на нашем специализированном сайте Метеоцентр.Азия вы можете получить высокодетализированные автоматические прогнозы погоды по пунктам России, СНГ и мира в авиационном формате (включающие направление и скорость ветра, видимость, явления погоды, количество и форму облачности, нижнюю и верхнюю границу облачности).


Погода Соловецкие Острова - сегодня

Время (UTC), дата Ветер
(°,м/с) 
Видим.   Явления Облачность Т
(°С)
Тd
(°С)
f(%) Тe
(°С)
Pmin
(гПа)
dP
(гПа)
Po
(мм)
O2
(г/м3)
Тmin Tmax R s Состояние
почвы
18 12.12.17 130 (ЮВ) 7-13{15}  20000 м  {снег, дождь}  9/9 600 м 
[Sc]
+0.3 -1.7 86 -4  1000.8  -3.6  750  302           
21 12.12.17 130 (ЮВ) 10-18{20}  20000 м    9/9 570 м 
[Sc]
-0.1 -2.8 82 -5  995.7  -5.2  746  301           
00 13.12.17 130 (ЮВ) 9-18{19}  0500 м  ливневой снег  10/10 100 м кучево-дожд. 
[Cb cap]
-0.6 -0.9 98 -5  990.3  -5.3  742  300           
03 13.12.17 140 (ЮВ) 7-13{20}  20000 м  позёмок{ливн. осадки}  9/9 240 м 
[St]
+0.1 -0.3 97 -4  986.4  -3.9  739  298  -0.8      замёрзшая 
06 13.12.17 150 (ЮВ) 7-13{16}  4000 м  слаб. ливневой снег  10/10 420 м кучево-дожд. 
[Cb cap]
+0.5 -0.1 96 -3  983.6  -2.8  737  296           
09 13.12.17 160 (Ю) 6-11{15}  1500 м  ливневой снег  10/10 100 м кучево-дожд. 
[Cb cap]
+0.4 +0.2 99 -3  981.2  -2.4  735  296           
12 13.12.17 230 (ЮЗ) 7-13{14}  30000 м  в посл. час ливневой снег  9/8 900 м средняя 
[Cu Sc|Ac As]
+0.4 -0.8 92 -3  981.9  0.7  736  296           
15 13.12.17 230 (ЮЗ) 10-16{16}  20000 м    9/8 1260 м средняя 
[Sc|Ac As]
+0 -4.4 72 -5  985.1  3.2  738  298    +0.9     
18 13.12.17 220 (ЮЗ) 12-18{18}  20000 м    9/6 1320 м средняя 
[Sc|Ac As]
-0.9 -4.9 74 -7  988.3  3.1  740  300           
21 13.12.17 220 (ЮЗ) 9-15{19}  20000 м    3/3 1000 м 
[Sc]
-0.9 -4.3 78 -6  990.5  2.3  742  300           
00 14.12.17 220 (ЮЗ) 10-15{15}  20000 м    8/8 660 м 
[Sc]
-1 -3.9 81 -6  992.2  1.8  743  301           
03 14.12.17 210 (ЮЗ) 8-12{16}  20000 м    9/9 870 м 
[Sc]
+0 -3.5 77 -4  993.2  744  300  -1.6      10  неравномерный
мокрый или
старый снег
100% 
06 14.12.17 200 (Ю) 6-10{14}  20000 м    9/9 900 м 
[Sc]
+0.7 -1.5 85 -3  995.4  2.2  746  300           
09 14.12.17 200 (Ю) 6-11{12}  30000 м    9/9 1080 м 
[Sc]
+1.3 -0.6 87 -2  998.1  2.7  748  300           
12 14.12.17 200 (Ю) 6{11}  28000 м    9/4 1000 м средняя 
[Sc|Ac As]
+1.3 -0.6 87 -2  999.9  1.8  749  301           
15 14.12.17 190 (Ю) 7-10{10}  20000 м    10/0 средняя 
[Ac As]
+1.1 -0.8 87 -3  1001.3  1.4  750  301    +1.6       
18 14.12.17 190 (Ю) 7-10{12}  20000 м    3/0 средняя 
[Ac As]
+0.3 -1.5 88 -4  1002.6  1.3  751  303           
21 14.12.17 210 (ЮЗ) 6-10{12}  20000 м    8/8 900 м 
[Sc]
+0.3 -4 73 -3  1003.7  1.1  752  303           
00 15.12.17 190 (Ю) 5{10}  20000 м    6/6 660 м 
[Sc]
-0.6 -3.3 82 -4  1004.1  0.4  752  304           
03 15.12.17 190 (Ю) 20000 м    9/9 300 м 
[Sc]
-1.5 -4.2 82 -5  1004.7  0.6  753  306  -1.5      10  неравномерный
мокрый или
старый снег
100% 
06 15.12.17 150 (ЮВ) 3{10}  20000 м    9/8 450 м средняя 
[Sc|Ac As]
-2.2 -5 81 -4  1004.7  753  306  -2.3         
09 15.12.17 150 (ЮВ) 30000 м    9/9 540 м 
[Sc]
-2.2 -5.3 79 -5  1004.5  -0.3  753  306           
12 15.12.17 130 (ЮВ) 4{10}  30000 м    10/10 240 м 
[St]
-3 -4.4 90 -6  1003.3  -1.1  752  307           
15 15.12.17 110 (В) 4000 м  слаб. ливневой снег  10/10 150 м кучево-дожд. 
[Cb cap]
-2.2 -2.9 95 -4  1001.9  -1.4  751  305    -1.5  0.2     
18 15.12.17 120 (ЮВ) 4000 м  слаб. ливневой снег  10/10 120 м кучево-дожд. 
[Cb cap]
-2.1 -2.6 96 -5  999.8  -2.1  749  305           
Время (UTC), дата Ветер
(°,м/с) 
Видим.   Явления Облачность Т
(°С)
Тd
(°С)
f(%) Тe
(°С)
Pmin
(гПа)
dP
(гПа)
Po
(мм)
O2
(г/м3)
Тmin Tmax R s Состояние
почвы

Для получения пояснительной информации подведите курсор к названию столбца.

ПОГОДА Соловецкие Острова - архив

Всё, что Вы хотите узнать о погоде Соловецкие Острова - удобно и подробно!

Выберите нужную дату (начиная с 1 января 2015* года) и нажмите кнопку "Найти".
Будут отображены архивные сводки погоды по пункту Соловецкие Острова, начиная с указанной даты.


Отображать данные в формате CSV (для использования в таблицах Excel)


Внимание! Наш архив погоды предназначен исключительно для личного некоммерческого использования в познавательных целях. Если Вам необходимы официальные справки о состоянии погоды (для производственных, юридических, коммерческих и т.п. целей), обращайтесь в органы Росгидромета.

*Примечание: данная дата относится к архиву по метеостанциям СССР (Россия, СНГ, Балтия).
Архив по метеостанциям Зарубежной Европы и Азии (кроме Китая) хранится 10 дней, по другим регионам земного шара (Китай, Африка, Америка, Австралия, Океания) - 1 день.

Соловецкие Острова - район местоположения метеостанции


Название, широта, долгота, высота метеостанции:
Соловецкие Острова (Кремль) 65°ш. 35.7°д. 7 м над ур. моря [Российская Федерация]

Дополнительная информация

В oтличие oт бoльшинства пoгoдных сайтoв мы публикуем пoдрoбную метеoинфoрмацию в детальнoм прoфессиoнальнoм фoрмате.

Характеристики температуры и влажнoсти вoздуха измеряются на высoте 2 м в тени вдали oт зданий и деревьев.
Скoрoсть ветра измеряется на высoте 10 м (на урoвне рoста челoвека скoрoсть ветра ниже в 1.5-2 раза). Если метеoстанция нахoдится в гoрoде или в лесу, тo скoрoсть ветра занижена на 2-4 м/с пo сравнению с oткрытым местoм. Скoрoсть ветра над акватoриями крупных рек и oзёр, а также на вершинах хoлмoв на 2-5 м/с выше, чем в oбычных услoвиях.
Атмoсфернoе давление в разных тoчках местнoсти мoжет значительнo oтличаться oт давления на метеoстанции, в зависимoсти oт услoвий рельефа (при пoдъёме на 10 м давление пoнижается примернo на 1 мм рт.ст.).